[[{"header":{"parameterUnit":"m.s-1","parameterCategory":2,"la1":30.2991,"la2":30.254,"lo1":-89.0895,"lo2":-89.0444,"dy":0.0017,"dx":0.0017,"nx":28,"ny":28,"refTime":"2025-08-16T09:00:00:Z","depth":"0","parameterNumber":2,"parameterNumberName":"U-component_of_CURRENTS"},"data":[0,0,0,0,0,0,0,0,0,0,0,0,0,0,0,0,0,0,0,0,0,0,0,0,0,0,0,0,0,0,0,0,0,0,0,0,0,0,0,0,0,0,0,0,0,0,0,0,0,0,0,0,0,0,0,0,0,0,-0.3246,-0.3246,0,-0.322,-0.3219,-0.3218,-0.314,-0.3139,-0.3138,-0.3136,-0.3079,-0.3079,-0.3078,0,0,0,0,0,0,0,0,0,0,0,0,0,-0.3153,-0.3155,-0.3246,-0.3246,-0.3246,-0.322,-0.3219,-0.3218,-0.314,-0.3139,-0.3137,-0.3136,-0.3079,-0.3079,-0.3078,0,0,0,0,0,0,0,0,0,0,0,0,0,-0.3163,-0.3156,-0.3246,-0.3208,-0.3204,-0.322,-0.3219,-0.3218,-0.3141,-0.3139,-0.3137,-0.3135,-0.3079,-0.3079,-0.3078,-0.3114,0,0,-0.3077,-0.3077,0,0,0,0,0,0,0,0,-0.3162,-0.3165,-0.3213,-0.321,-0.3207,-0.3185,-0.3165,-0.3183,-0.3141,-0.316,-0.3136,-0.3134,-0.3116,-0.3113,-0.3106,-0.3111,-0.3109,-0.3077,-0.3076,-0.3076,-0.3076,0,0,0,0,0,0,0,-0.3162,-0.3166,-0.3231,-0.3214,-0.321,-0.3166,-0.3165,-0.3168,-0.3145,-0.3158,-0.3154,-0.3159,-0.3113,-0.3106,-0.3104,-0.3108,-0.3077,-0.3076,-0.3076,-0.3076,-0.3137,-0.3139,0,0,0,0,0,0,-0.3181,-0.3166,-0.3232,-0.3231,-0.3185,-0.317,-0.3169,-0.319,-0.3146,-0.3138,-0.316,-0.3155,-0.3108,-0.3104,-0.3101,-0.3117,-0.3076,-0.3076,-0.3075,-0.3135,-0.3138,-0.314,0,0,0,0,0,0,-0.318,-0.3188,-0.3233,-0.32,-0.3203,-0.3175,-0.3199,-0.3191,-0.318,-0.3148,-0.3139,-0.3158,-0.3106,-0.3102,-0.311,-0.3115,-0.3076,-0.3075,-0.3133,-0.3136,-0.3139,-0.3163,0,0,0,0,0,0,-0.3177,-0.3188,-0.3204,-0.3202,-0.3206,-0.3246,-0.3201,-0.3192,-0.3189,-0.3182,-0.3144,-0.3136,-0.3105,-0.3111,-0.311,-0.3113,-0.3075,-0.3131,-0.3135,-0.3138,-0.3159,-0.3166,-0.3172,0,0,0,0,0,-0.3174,-0.3214,-0.3206,-0.3213,-0.3232,-0.3248,-0.3245,-0.3214,-0.3191,-0.3195,-0.3173,-0.3137,-0.3133,-0.3113,-0.311,-0.3113,-0.3129,-0.3133,-0.3138,-0.3157,-0.3165,-0.3172,0,0,0,0,0,0,-0.3187,-0.321,-0.3201,-0.3246,-0.3247,-0.3236,-0.3241,-0.3225,-0.3211,-0.3206,-0.3163,-0.3156,-0.3173,-0.3153,-0.3131,-0.3148,-0.3125,-0.313,-0.3141,-0.3148,-0.3154,-0.3125,-0.3074,0,0,0,0,0,-0.32,-0.3229,-0.3239,-0.3273,-0.3277,-0.3261,-0.3262,-0.3249,-0.3242,-0.3232,-0.321,-0.3195,-0.3193,-0.3176,-0.3183,-0.3186,-0.3125,-0.319,-0.3196,-0.3201,-0.318,-0.3109,-0.3105,-0.3154,-0.3154,-0.3154,0,0,-0.3212,-0.3231,-0.3245,-0.3276,-0.3271,-0.3287,-0.3255,-0.3272,-0.327,-0.3233,-0.3229,-0.323,-0.3208,-0.3215,-0.3217,-0.3188,-0.3157,-0.3206,-0.321,-0.3186,-0.3113,-0.3107,-0.3102,-0.3157,-0.3157,-0.3156,0,0,-0.3251,-0.327,-0.33,-0.3308,-0.3322,-0.3316,-0.3326,-0.3327,-0.3306,-0.3324,-0.3294,-0.3288,-0.3295,-0.3256,-0.3242,-0.3289,-0.3212,-0.3308,-0.3283,-0.3216,-0.321,-0.3203,-0.3112,-0.3098,-0.3285,-0.3285,-0.3285,0,-0.3251,-0.3284,-0.3309,-0.3337,-0.3326,-0.3333,-0.3338,-0.3344,-0.3345,-0.332,-0.3331,-0.3311,-0.3305,-0.3261,-0.3282,-0.3296,-0.324,-0.325,-0.3218,-0.321,-0.3203,-0.3111,-0.3095,-0.3287,-0.3287,-0.3287,-0.3286,0,-0.3314,-0.3317,-0.3336,-0.3362,-0.3376,-0.3378,-0.3391,-0.3399,-0.339,-0.3376,-0.3356,-0.3345,-0.3314,-0.3325,-0.3319,-0.3268,-0.3239,-0.3249,-0.3184,-0.3198,-0.3103,-0.3084,-0.3289,-0.3289,-0.3288,-0.3288,0,0,-0.3327,-0.3358,-0.3358,-0.3323,-0.3367,-0.3365,-0.3397,-0.3378,-0.3356,-0.3373,-0.332,-0.3334,-0.3317,-0.3302,-0.3283,-0.3221,-0.314,-0.3213,-0.3209,-0.3096,-0.2964,-0.2741,-0.27,-0.3139,-0.3136,-0.3134,-0.2912,0,-0.3325,-0.3317,-0.3374,-0.3349,-0.3307,-0.3344,-0.3364,-0.337,-0.3363,-0.3336,-0.3306,-0.328,-0.331,-0.3286,-0.3239,-0.3183,-0.3095,-0.3197,-0.299,-0.2983,-0.276,-0.2673,-0.2484,-0.2252,-0.2894,-0.2891,-0.2889,0,-0.335,-0.3305,-0.3261,-0.3238,-0.3239,-0.3254,-0.3225,-0.3261,-0.3264,-0.3267,-0.3244,-0.3236,-0.3175,-0.3197,-0.306,-0.3125,-0.3042,-0.2981,-0.2971,-0.2734,-0.2725,-0.2347,-0.2194,-0.2206,-0.286,-0.2862,-0.2865,0,-0.3233,-0.3234,-0.3157,-0.3148,-0.3153,-0.314,-0.317,-0.3199,-0.32,-0.32,-0.3187,-0.3146,-0.3086,-0.3021,-0.2923,-0.2992,-0.2731,-0.2813,-0.2513,-0.2497,-0.2275,-0.2241,-0.2076,-0.2665,-0.2665,-0.2666,-0.2667,0,-0.3148,-0.3097,-0.3076,-0.301,-0.2943,-0.3024,-0.2987,-0.3036,-0.3076,-0.3051,-0.3124,-0.3045,-0.3037,-0.2907,-0.2861,-0.259,-0.2674,-0.2454,-0.2402,-0.2278,-0.2249,-0.2201,-0.229,-0.2658,-0.2659,-0.2661,-0.2663,0,-0.2997,-0.3009,-0.2907,-0.2868,-0.2865,-0.2814,-0.2874,-0.2875,-0.2945,-0.2909,-0.2908,-0.2917,-0.2746,-0.2674,-0.2508,-0.2436,-0.2178,-0.213,-0.1964,-0.1893,-0.1645,-0.1743,-0.1506,-0.1469,-0.178,-0.1773,-0.1767,0,-0.2898,-0.2812,-0.2751,-0.2718,-0.2685,-0.2648,-0.2664,-0.2769,-0.2788,-0.2794,-0.2764,-0.2605,-0.2405,-0.208,-0.1932,-0.1709,-0.183,-0.1432,-0.1524,-0.1531,-0.1608,-0.1729,-0.173,-0.1256,-0.1247,-0.1239,-0.1232,0,-0.2639,-0.2642,-0.2562,-0.2479,-0.2459,-0.2455,-0.2476,-0.246,-0.2584,-0.2507,-0.2337,-0.2149,-0.1855,-0.1466,-0.122,-0.1154,-0.1393,-0.1255,-0.1312,-0.1183,-0.1254,-0.1226,-0.1522,-0.1161,-0.1168,-0.1174,-0.1177,-0.118,-0.2455,-0.2351,-0.2273,-0.2202,-0.2224,-0.2213,-0.2129,-0.2157,-0.2063,-0.1873,-0.1853,-0.1429,-0.1077,-0.0667,-0.0679,-0.058,-0.0795,-0.0568,-0.0685,-0.0806,-0.0759,-0.0859,-0.0416,-0.0419,-0.0421,-0.0423,-0.0425,0,-0.213,-0.2065,-0.2006,-0.1926,-0.1893,-0.1979,-0.1969,-0.1835,-0.1596,-0.1394,-0.1086,-0.0475,-0.0123,-0.0045,0.0084,0.0014,-0.017,-0.0101,-0.0294,-0.0326,-0.0409,-0.0375,0.016,0.016,0.016,0.016,0.016,0.016,-0.195,-0.1763,-0.1737,-0.1563,-0.1567,-0.1426,-0.1364,-0.1184,-0.0992,-0.0448,-0.0043,0.0202,0.0358,0.0425,0.0316,0.0219,0.0011,0.0048,-0.013,-0.0274,-0.0332,-0.0387,-0.0373,0.0154,0.0153,0.0021,0.0019,0.0018]},{"header":{"parameterUnit":"m.s-1","parameterCategory":2,"la1":30.2991,"la2":30.254,"lo1":-89.0895,"lo2":-89.0444,"dy":0.0017,"dx":0.0017,"nx":28,"ny":28,"refTime":"2025-08-16T09:00:00:Z","depth":"0","parameterNumber":3,"parameterNumberName":"V-component_of_CURRENTS"},"data":[0,0,0,0,0,0,0,0,0,0,0,0,0,0,0,0,0,0,0,0,0,0,0,0,0,0,0,0,0,0,0,0,0,0,0,0,0,0,0,0,0,0,0,0,0,0,0,0,0,0,0,0,0,0,0,0,0,0,-0.0818,-0.0818,0,-0.0766,-0.0766,-0.0765,-0.066,-0.0658,-0.0656,-0.0655,-0.0485,-0.0482,-0.0479,0,0,0,0,0,0,0,0,0,0,0,0,0,-0.0823,-0.0823,-0.0818,-0.0818,-0.0817,-0.0767,-0.0766,-0.0765,-0.0661,-0.0658,-0.0656,-0.0654,-0.0486,-0.0482,-0.0479,0,0,0,0,0,0,0,0,0,0,0,0,0,-0.08,-0.0823,-0.0818,-0.076,-0.0754,-0.0767,-0.0766,-0.0765,-0.0661,-0.0658,-0.0655,-0.0653,-0.0487,-0.0483,-0.0479,-0.0513,0,0,-0.0466,-0.0465,0,0,0,0,0,0,0,0,-0.0801,-0.08,-0.0769,-0.0764,-0.0758,-0.0718,-0.0705,-0.0675,-0.0662,-0.0695,-0.0655,-0.0651,-0.0555,-0.0545,-0.0542,-0.0505,-0.0498,-0.0466,-0.0464,-0.0462,-0.0461,0,0,0,0,0,0,0,-0.0803,-0.0801,-0.0796,-0.0769,-0.0762,-0.0735,-0.0728,-0.0699,-0.0639,-0.0692,-0.0685,-0.0682,-0.055,-0.0546,-0.0537,-0.0495,-0.0466,-0.0463,-0.046,-0.0459,-0.0431,-0.0432,0,0,0,0,0,0,-0.0816,-0.0803,-0.0798,-0.0795,-0.0774,-0.0738,-0.073,-0.0733,-0.0642,-0.0626,-0.0685,-0.0677,-0.0554,-0.0542,-0.053,-0.0514,-0.0462,-0.0458,-0.0456,-0.0429,-0.0431,-0.0433,0,0,0,0,0,0,-0.0816,-0.0816,-0.08,-0.0798,-0.0794,-0.0741,-0.0744,-0.0733,-0.0718,-0.0637,-0.0619,-0.0679,-0.0552,-0.0536,-0.0496,-0.0508,-0.0456,-0.0453,-0.0427,-0.043,-0.0432,-0.0514,0,0,0,0,0,0,-0.0817,-0.0817,-0.0827,-0.08,-0.0795,-0.0806,-0.0747,-0.0734,-0.0722,-0.0711,-0.0627,-0.0609,-0.0548,-0.0503,-0.0492,-0.0501,-0.045,-0.0425,-0.0428,-0.0431,-0.0509,-0.0519,-0.0528,0,0,0,0,0,-0.0817,-0.0863,-0.0828,-0.0828,-0.081,-0.0807,-0.0803,-0.0753,-0.0725,-0.0727,-0.0666,-0.0611,-0.0515,-0.0501,-0.0488,-0.0496,-0.0423,-0.0427,-0.0431,-0.0505,-0.0517,-0.0527,0,0,0,0,0,0,-0.088,-0.0856,-0.0817,-0.0853,-0.0823,-0.0789,-0.0805,-0.0766,-0.0727,-0.0718,-0.0629,-0.0608,-0.0574,-0.054,-0.0526,-0.0502,-0.0462,-0.0464,-0.0523,-0.0534,-0.0543,-0.0609,-0.0446,0,0,0,0,0,-0.0898,-0.0917,-0.0876,-0.0902,-0.0896,-0.0849,-0.0844,-0.081,-0.0772,-0.0752,-0.0689,-0.0635,-0.0588,-0.0562,-0.0518,-0.0513,-0.0489,-0.0514,-0.0523,-0.0531,-0.0579,-0.0581,-0.0595,-0.0445,-0.0445,-0.0445,0,0,-0.0933,-0.092,-0.0932,-0.0915,-0.0895,-0.0898,-0.0839,-0.0847,-0.084,-0.0743,-0.0721,-0.0661,-0.0594,-0.0572,-0.0556,-0.0539,-0.0546,-0.0535,-0.0542,-0.0587,-0.0587,-0.0601,-0.0614,-0.0448,-0.0447,-0.0447,0,0,-0.1016,-0.0998,-0.1035,-0.1012,-0.0986,-0.0957,-0.096,-0.0922,-0.0893,-0.0864,-0.0794,-0.076,-0.0679,-0.0648,-0.0617,-0.0665,-0.0591,-0.0635,-0.0735,-0.0736,-0.0748,-0.0759,-0.0684,-0.0688,-0.0644,-0.0644,-0.0644,0,-0.1056,-0.1075,-0.1046,-0.1062,-0.1053,-0.0986,-0.101,-0.0983,-0.0931,-0.0931,-0.0864,-0.0796,-0.0724,-0.0727,-0.073,-0.0686,-0.0651,-0.0689,-0.0748,-0.0759,-0.0769,-0.069,-0.0693,-0.0648,-0.0648,-0.0648,-0.0647,0,-0.1153,-0.1148,-0.1175,-0.1159,-0.1158,-0.1168,-0.1122,-0.1113,-0.1061,-0.1031,-0.1012,-0.0925,-0.0898,-0.0853,-0.0795,-0.0838,-0.0772,-0.0752,-0.0721,-0.079,-0.07,-0.0702,-0.0655,-0.0653,-0.0652,-0.0651,0,0,-0.1287,-0.1246,-0.1251,-0.1229,-0.1202,-0.1209,-0.1222,-0.1215,-0.1235,-0.1169,-0.1183,-0.1112,-0.1086,-0.1056,-0.0984,-0.0977,-0.0969,-0.0904,-0.0902,-0.083,-0.0917,-0.0775,-0.0761,-0.0957,-0.096,-0.0961,-0.0802,0,-0.1355,-0.1368,-0.1357,-0.1372,-0.136,-0.1324,-0.1354,-0.1348,-0.1305,-0.13,-0.1241,-0.1216,-0.1155,-0.1128,-0.1127,-0.1,-0.0991,-0.1012,-0.0864,-0.0859,-0.0726,-0.0767,-0.0656,-0.05,-0.0803,-0.0803,-0.0804,0,-0.1448,-0.1427,-0.1439,-0.1433,-0.1443,-0.1461,-0.1487,-0.1504,-0.15,-0.1476,-0.147,-0.1401,-0.1375,-0.1302,-0.12,-0.1212,-0.1105,-0.1005,-0.0997,-0.0856,-0.0725,-0.0494,-0.0491,-0.0408,-0.0806,-0.0806,-0.0806,0,-0.1496,-0.1497,-0.1493,-0.1481,-0.1477,-0.1508,-0.1533,-0.1557,-0.1566,-0.1578,-0.1559,-0.1551,-0.1462,-0.1411,-0.1195,-0.1209,-0.1038,-0.1024,-0.0802,-0.0786,-0.0665,-0.0635,-0.0578,-0.1001,-0.1001,-0.1002,-0.1002,0,-0.1542,-0.1546,-0.1505,-0.1491,-0.1548,-0.1552,-0.1619,-0.1652,-0.1662,-0.1654,-0.1655,-0.158,-0.1486,-0.1349,-0.1234,-0.0993,-0.1073,-0.0838,-0.0762,-0.0679,-0.0654,-0.0554,-0.0552,-0.0995,-0.0997,-0.0998,-0.0999,0,-0.1565,-0.1537,-0.1539,-0.1539,-0.1549,-0.1595,-0.1637,-0.1685,-0.17,-0.1668,-0.1663,-0.1563,-0.1386,-0.1262,-0.1073,-0.0965,-0.0706,-0.0699,-0.0563,-0.0476,-0.0226,-0.0232,-0.0135,-0.0039,-0.0465,-0.0461,-0.0457,0,-0.1568,-0.1538,-0.1554,-0.1586,-0.1581,-0.1625,-0.1676,-0.1702,-0.1702,-0.1607,-0.1572,-0.1398,-0.1193,-0.0882,-0.0716,-0.0512,-0.0489,-0.0287,-0.0333,-0.0214,-0.0166,-0.0198,-0.0128,-0.0165,-0.0159,-0.0155,-0.0151,0,-0.1532,-0.1534,-0.1544,-0.1597,-0.1642,-0.1681,-0.1704,-0.167,-0.1654,-0.1519,-0.1271,-0.1082,-0.0828,-0.0502,-0.0295,-0.019,-0.0205,-0.0185,-0.0128,0.0001,0.0029,0.0164,-0.0218,-0.0111,-0.0115,-0.0118,-0.012,-0.0122,-0.151,-0.1522,-0.1531,-0.1596,-0.1669,-0.1672,-0.1613,-0.153,-0.1365,-0.1025,-0.0928,-0.0472,-0.0282,0.0046,0.0099,0.0253,0.0146,0.0326,0.0299,0.0248,0.0343,0.0085,0.0309,0.0308,0.0306,0.0305,0.0304,0,-0.141,-0.1433,-0.1517,-0.1571,-0.1635,-0.1671,-0.1586,-0.1406,-0.1048,-0.0672,-0.0278,0.0291,0.0499,0.056,0.0663,0.0738,0.0695,0.0754,0.0695,0.0737,0.0473,0.0488,0.0841,0.0841,0.0841,0.084,0.084,0.084,-0.1349,-0.1355,-0.1407,-0.1475,-0.1535,-0.1453,-0.1342,-0.0993,-0.0644,0.0127,0.0664,0.0996,0.1088,0.0962,0.1008,0.1028,0.107,0.1061,0.1062,0.0838,0.0794,0.0752,0.0766,0.1171,0.1171,0.1364,0.1365,0.1367]}],[{"header":{"parameterUnit":"m.s-1","parameterCategory":2,"la1":30.2991,"la2":30.254,"lo1":-89.0895,"lo2":-89.0444,"dy":0.0017,"dx":0.0017,"nx":28,"ny":28,"refTime":"2025-08-16T09:00:00:Z","depth":"2","parameterNumber":2,"parameterNumberName":"U-component_of_CURRENTS"},"data":[0,0,0,0,0,0,0,0,0,0,0,0,0,0,0,0,0,0,0,0,0,0,0,0,0,0,0,0,0,0,0,0,0,0,0,0,0,0,0,0,0,0,0,0,0,0,0,0,0,0,0,0,0,0,0,0,0,0,-0.1869,-0.1869,0,-0.1955,-0.1957,-0.1958,-0.2028,-0.2028,-0.2028,-0.2028,-0.2083,-0.2085,-0.2086,0,0,0,0,0,0,0,0,0,0,0,0,0,-0.1901,-0.19,-0.1869,-0.1869,-0.187,-0.1955,-0.1957,-0.1959,-0.2028,-0.2028,-0.2028,-0.2028,-0.2083,-0.2085,-0.2086,0,0,0,0,0,0,0,0,0,0,0,0,0,-0.1933,-0.19,-0.1869,-0.191,-0.1914,-0.1955,-0.1957,-0.1959,-0.2028,-0.2028,-0.2028,-0.2028,-0.2082,-0.2084,-0.2086,-0.2097,0,0,-0.2093,-0.2094,0,0,0,0,0,0,0,0,-0.1931,-0.1933,-0.1903,-0.1907,-0.1911,-0.1975,-0.1988,-0.2001,-0.2028,-0.1992,-0.2028,-0.2028,-0.204,-0.2045,-0.2071,-0.2099,-0.2102,-0.2093,-0.2094,-0.2095,-0.2096,0,0,0,0,0,0,0,-0.1929,-0.193,-0.191,-0.1903,-0.1908,-0.197,-0.1975,-0.1993,-0.2019,-0.1995,-0.1998,-0.1997,-0.2043,-0.2069,-0.2073,-0.2103,-0.2093,-0.2095,-0.2096,-0.2097,-0.2121,-0.212,0,0,0,0,0,0,-0.1897,-0.1927,-0.1907,-0.1912,-0.1914,-0.1968,-0.1974,-0.196,-0.2019,-0.2027,-0.1997,-0.2,-0.2066,-0.2071,-0.2075,-0.2046,-0.2095,-0.2097,-0.2098,-0.2121,-0.212,-0.212,0,0,0,0,0,0,-0.1897,-0.1894,-0.1903,-0.1918,-0.1922,-0.1966,-0.1951,-0.1961,-0.2013,-0.202,-0.2028,-0.2039,-0.2066,-0.2072,-0.2108,-0.205,-0.2098,-0.21,-0.2122,-0.2121,-0.212,-0.2015,0,0,0,0,0,0,-0.1897,-0.1893,-0.1888,-0.1914,-0.192,-0.1904,-0.1951,-0.1963,-0.2007,-0.2013,-0.2058,-0.2063,-0.2067,-0.2105,-0.211,-0.2053,-0.2102,-0.2123,-0.2122,-0.212,-0.2019,-0.201,-0.2003,0,0,0,0,0,-0.1898,-0.1883,-0.1887,-0.1885,-0.1905,-0.1902,-0.191,-0.1949,-0.2009,-0.2005,-0.2063,-0.2063,-0.2099,-0.2107,-0.2113,-0.2055,-0.2123,-0.2122,-0.2121,-0.2023,-0.2012,-0.2003,0,0,0,0,0,0,-0.1881,-0.1889,-0.1893,-0.1877,-0.1875,-0.191,-0.1923,-0.1967,-0.2017,-0.2039,-0.2077,-0.2083,-0.2081,-0.2104,-0.2112,-0.2061,-0.2102,-0.2102,-0.2025,-0.2016,-0.2008,-0.199,-0.2103,0,0,0,0,0,-0.1873,-0.187,-0.1871,-0.1853,-0.1859,-0.1904,-0.1921,-0.1941,-0.1981,-0.2007,-0.2039,-0.2072,-0.2077,-0.208,-0.2089,-0.2081,-0.2086,-0.2044,-0.2036,-0.2029,-0.202,-0.2004,-0.1993,-0.2115,-0.2115,-0.2115,0,0,-0.1856,-0.1862,-0.1857,-0.1851,-0.187,-0.1865,-0.1917,-0.193,-0.192,-0.2002,-0.2021,-0.2052,-0.2076,-0.2051,-0.2049,-0.2063,-0.1992,-0.2027,-0.202,-0.2016,-0.2001,-0.1989,-0.1978,-0.2114,-0.2114,-0.2115,0,0,-0.1811,-0.183,-0.181,-0.1813,-0.1822,-0.185,-0.1858,-0.1893,-0.1901,-0.1917,-0.1966,-0.1972,-0.2002,-0.1982,-0.1983,-0.1945,-0.1957,-0.1951,-0.1883,-0.1867,-0.1856,-0.1847,-0.1812,-0.18,-0.1937,-0.1937,-0.1937,0,-0.1783,-0.1768,-0.1799,-0.1781,-0.1791,-0.1846,-0.1831,-0.1837,-0.1875,-0.1881,-0.19,-0.1948,-0.195,-0.1924,-0.1894,-0.1916,-0.1926,-0.1912,-0.1853,-0.1844,-0.1836,-0.1803,-0.1792,-0.1932,-0.1933,-0.1933,-0.1934,0,-0.1724,-0.1719,-0.1712,-0.1714,-0.1724,-0.1722,-0.1731,-0.1741,-0.1782,-0.1793,-0.1788,-0.1802,-0.1831,-0.1809,-0.1834,-0.1779,-0.1808,-0.1848,-0.187,-0.1817,-0.1786,-0.1776,-0.1924,-0.1926,-0.1928,-0.1929,0,0,-0.166,-0.1664,-0.1674,-0.1675,-0.1699,-0.1709,-0.1685,-0.1686,-0.1704,-0.1694,-0.1699,-0.1663,-0.1704,-0.1709,-0.1731,-0.1695,-0.1616,-0.1744,-0.1746,-0.1694,-0.1579,-0.1486,-0.1467,-0.1663,-0.1662,-0.166,-0.157,0,-0.1609,-0.1578,-0.1601,-0.1596,-0.1592,-0.1634,-0.1622,-0.163,-0.1645,-0.1657,-0.1636,-0.1654,-0.1654,-0.1678,-0.1634,-0.1652,-0.1591,-0.1637,-0.1652,-0.1651,-0.1563,-0.1452,-0.1346,-0.1248,-0.156,-0.1558,-0.1557,0,-0.155,-0.1557,-0.1527,-0.1563,-0.1571,-0.1577,-0.1622,-0.1609,-0.1614,-0.1621,-0.162,-0.1646,-0.1595,-0.1612,-0.1547,-0.1592,-0.1563,-0.1551,-0.1548,-0.1493,-0.1539,-0.1359,-0.1218,-0.1541,-0.1542,-0.1543,-0.1544,0,-0.151,-0.1517,-0.1507,-0.1513,-0.1544,-0.1552,-0.1588,-0.1606,-0.1606,-0.1612,-0.1624,-0.1601,-0.1588,-0.1557,-0.1508,-0.1546,-0.1436,-0.1492,-0.1364,-0.1358,-0.1281,-0.1271,-0.1411,-0.1412,-0.1412,-0.1412,-0.1412,0,-0.1451,-0.1449,-0.1498,-0.1489,-0.1519,-0.155,-0.1569,-0.159,-0.1613,-0.1611,-0.1616,-0.1585,-0.1577,-0.1523,-0.1493,-0.1372,-0.1415,-0.1311,-0.1313,-0.1239,-0.1226,-0.1512,-0.1525,-0.1409,-0.1409,-0.141,-0.1411,0,-0.1383,-0.1395,-0.1399,-0.1459,-0.148,-0.151,-0.1568,-0.1572,-0.1604,-0.1597,-0.16,-0.1567,-0.1469,-0.1433,-0.1362,-0.1325,-0.1248,-0.1193,-0.109,-0.1078,-0.1189,-0.1198,-0.1045,-0.1041,-0.1037,-0.1034,-0.1031,0,-0.133,-0.132,-0.1388,-0.1394,-0.1418,-0.1467,-0.148,-0.155,-0.1543,-0.156,-0.153,-0.1462,-0.1344,-0.1188,-0.1101,-0.0994,-0.1092,-0.087,-0.0896,-0.1126,-0.1144,-0.1159,-0.1172,-0.0753,-0.0748,-0.0745,-0.0742,0,-0.1254,-0.1284,-0.1298,-0.1319,-0.1344,-0.1365,-0.1393,-0.1396,-0.145,-0.1436,-0.1341,-0.1261,-0.1099,-0.0916,-0.081,-0.0738,-0.0886,-0.0786,-0.104,-0.0862,-0.0842,-0.0864,-0.0888,-0.0707,-0.0711,-0.0713,-0.0715,-0.0717,-0.1208,-0.1213,-0.1224,-0.1236,-0.1252,-0.1225,-0.1179,-0.1202,-0.1172,-0.1119,-0.1133,-0.0993,-0.0963,-0.0693,-0.059,-0.0498,-0.0578,-0.0584,-0.06,-0.0618,-0.06,-0.0575,-0.0385,-0.0387,-0.0388,-0.0389,-0.039,0,-0.1138,-0.1135,-0.1133,-0.1117,-0.1067,-0.1114,-0.1075,-0.0996,-0.0899,-0.0896,-0.0806,-0.0687,-0.0565,-0.0518,-0.0317,-0.0263,-0.0279,-0.0245,-0.0313,-0.0344,-0.0373,-0.0347,-0.0063,-0.0062,-0.0061,-0.0061,0,0,-0.1108,-0.1058,-0.105,-0.093,-0.0901,-0.077,-0.0708,-0.0631,-0.0575,-0.0465,-0.0431,-0.0522,-0.0512,-0.036,-0.0267,-0.0132,-0.0228,-0.0078,-0.0332,-0.0441,-0.047,-0.0547,-0.0538,0,0,0,0,0]},{"header":{"parameterUnit":"m.s-1","parameterCategory":2,"la1":30.2991,"la2":30.254,"lo1":-89.0895,"lo2":-89.0444,"dy":0.0017,"dx":0.0017,"nx":28,"ny":28,"refTime":"2025-08-16T09:00:00:Z","depth":"2","parameterNumber":3,"parameterNumberName":"V-component_of_CURRENTS"},"data":[0,0,0,0,0,0,0,0,0,0,0,0,0,0,0,0,0,0,0,0,0,0,0,0,0,0,0,0,0,0,0,0,0,0,0,0,0,0,0,0,0,0,0,0,0,0,0,0,0,0,0,0,0,0,0,0,0,0,-0.0358,-0.0357,0,-0.0242,-0.024,-0.0238,-0.0145,-0.0144,-0.0144,-0.0144,0.0081,0.0086,0.0092,0,0,0,0,0,0,0,0,0,0,0,0,0,-0.0457,-0.0455,-0.0358,-0.0357,-0.0356,-0.0242,-0.024,-0.0238,-0.0145,-0.0144,-0.0144,-0.0143,0.0079,0.0086,0.0093,0,0,0,0,0,0,0,0,0,0,0,0,0,-0.0378,-0.0455,-0.0358,-0.0301,-0.0295,-0.0243,-0.024,-0.0237,-0.0145,-0.0144,-0.0144,-0.0143,0.0077,0.0085,0.0094,0.0136,0,0,0.012,0.0123,0,0,0,0,0,0,0,0,-0.0383,-0.0374,-0.031,-0.0305,-0.0298,-0.0213,-0.0193,-0.0109,-0.0145,-0.0195,-0.0144,-0.0143,-0.0012,0.0004,0.0033,0.0147,0.0156,0.012,0.0125,0.0129,0.0131,0,0,0,0,0,0,0,-0.0389,-0.0378,-0.0305,-0.0309,-0.0302,-0.0268,-0.0256,-0.0176,-0.01,-0.019,-0.0185,-0.0183,-0.0007,0.0024,0.0039,0.016,0.012,0.0128,0.0133,0.0136,0.0353,0.0354,0,0,0,0,0,0,-0.0419,-0.0384,-0.0309,-0.0302,-0.0348,-0.0267,-0.0253,-0.0235,-0.0103,-0.0085,-0.0184,-0.0179,0.0009,0.0029,0.0047,0.0111,0.0129,0.0137,0.0142,0.0353,0.0353,0.0354,0,0,0,0,0,0,-0.0421,-0.0413,-0.0313,-0.0347,-0.0332,-0.0267,-0.0247,-0.0234,-0.0187,-0.0101,-0.0079,-0.0151,0.001,0.0035,0.0132,0.012,0.0141,0.0149,0.0352,0.0353,0.0354,0.0235,0,0,0,0,0,0,-0.0424,-0.0414,-0.0405,-0.0348,-0.0332,-0.0284,-0.0248,-0.0232,-0.0191,-0.0183,-0.0065,-0.0045,0.0013,0.0118,0.014,0.0132,0.0155,0.0351,0.0352,0.0353,0.0239,0.0232,0.0227,0,0,0,0,0,-0.0428,-0.0419,-0.0405,-0.0396,-0.0323,-0.0285,-0.0272,-0.022,-0.019,-0.0174,-0.0087,-0.0048,0.0141,0.0126,0.0152,0.0146,0.035,0.0352,0.0353,0.0241,0.0234,0.0227,0,0,0,0,0,0,-0.0448,-0.0408,-0.0391,-0.0367,-0.0334,-0.0272,-0.0254,-0.0216,-0.0134,-0.0123,-0.0027,-0.0,0.0074,0.0138,0.0119,0.0214,0.0248,0.0254,0.0154,0.0148,0.0142,0.0108,0.0162,0,0,0,0,0,-0.0455,-0.0443,-0.0397,-0.0382,-0.0365,-0.0307,-0.0282,-0.0252,-0.0182,-0.0146,-0.0064,0.0024,0.0098,0.0144,0.022,0.0283,0.0327,0.0294,0.0288,0.0283,0.0274,0.033,0.0327,0.0359,0.0359,0.0359,0,0,-0.0463,-0.0439,-0.0433,-0.0388,-0.0353,-0.0325,-0.0287,-0.0259,-0.0235,-0.0133,-0.0059,0.0012,0.0113,0.0173,0.0211,0.0226,0.0298,0.0285,0.0278,0.0273,0.0331,0.0328,0.0324,0.036,0.036,0.036,0,0,-0.0474,-0.0447,-0.0438,-0.0412,-0.0377,-0.0343,-0.0335,-0.0271,-0.0241,-0.0175,-0.01,-0.0042,0.009,0.0138,0.0185,0.0198,0.0265,0.0233,0.0176,0.023,0.0227,0.0225,0.0267,0.027,0.0229,0.0228,0.0228,0,-0.0484,-0.0457,-0.0431,-0.041,-0.0392,-0.035,-0.033,-0.0297,-0.0211,-0.0184,-0.0166,-0.0001,0.0062,0.0137,0.0127,0.0179,0.023,0.0186,0.0218,0.0217,0.0217,0.0261,0.0266,0.0223,0.0223,0.0224,0.0225,0,-0.0484,-0.0458,-0.045,-0.0412,-0.0391,-0.0373,-0.0336,-0.0305,-0.0269,-0.0228,-0.0157,-0.0079,0.0018,0.0035,0.0082,0.0119,0.0162,0.0199,0.0222,0.0205,0.0255,0.0261,0.0215,0.0217,0.0219,0.022,0,0,-0.0513,-0.046,-0.0457,-0.044,-0.0392,-0.0379,-0.035,-0.0307,-0.028,-0.0229,-0.0183,-0.0111,-0.0075,-0.0021,0.004,0.0065,0.0081,0.0121,0.0127,0.0139,0.0205,0.0221,0.023,0.0134,0.0134,0.0135,0.0235,0,-0.0515,-0.0488,-0.0459,-0.0434,-0.0412,-0.0376,-0.0351,-0.0317,-0.0276,-0.0224,-0.0179,-0.0111,-0.0091,-0.0054,-0.0027,0.0074,0.0097,0.0051,0.0242,0.0247,0.0242,0.0237,0.0228,0.0316,0.0242,0.0243,0.0244,0,-0.0515,-0.0499,-0.0474,-0.044,-0.0429,-0.0416,-0.0377,-0.035,-0.0283,-0.0249,-0.0193,-0.0133,-0.0082,-0.0071,0.0052,0.0033,0.0099,0.0155,0.0162,0.0221,0.0275,0.0327,0.0332,0.0256,0.0255,0.0254,0.0253,0,-0.0542,-0.0508,-0.0494,-0.048,-0.0434,-0.0431,-0.0415,-0.0359,-0.0337,-0.0266,-0.0227,-0.0146,-0.0091,-0.0012,0.009,0.0085,0.0226,0.0245,0.0317,0.032,0.037,0.0375,0.0314,0.0313,0.0313,0.0313,0.0313,0,-0.0537,-0.0526,-0.0514,-0.0501,-0.0512,-0.047,-0.0461,-0.0427,-0.0367,-0.0312,-0.0248,-0.0173,-0.0072,0.0027,0.0099,0.0231,0.0241,0.0302,0.0346,0.0329,0.033,0.0329,0.033,0.0317,0.0316,0.0315,0.0315,0,-0.0544,-0.0522,-0.0521,-0.0509,-0.0515,-0.053,-0.0514,-0.0496,-0.0427,-0.0351,-0.0328,-0.0186,-0.004,0.0055,0.0209,0.0259,0.0367,0.0409,0.0371,0.0407,0.042,0.0414,0.0499,0.05,0.0502,0.0503,0.0503,0,-0.0531,-0.0526,-0.0555,-0.0576,-0.0574,-0.0589,-0.0592,-0.0542,-0.0502,-0.0336,-0.0289,-0.0135,0.002,0.0227,0.0325,0.0451,0.0435,0.05,0.047,0.0404,0.0439,0.0431,0.0423,0.0495,0.0496,0.0496,0.0497,0,-0.0524,-0.0545,-0.0557,-0.0612,-0.0638,-0.0654,-0.064,-0.0617,-0.0507,-0.0393,-0.0185,-0.0045,0.0167,0.0326,0.0445,0.051,0.0471,0.0515,0.0487,0.0438,0.0406,0.0438,0.043,0.0502,0.0501,0.0501,0.05,0.05,-0.0534,-0.0568,-0.0603,-0.0653,-0.0687,-0.0696,-0.0678,-0.0611,-0.0507,-0.0278,-0.0118,0.0121,0.0207,0.0409,0.0488,0.0544,0.0558,0.0559,0.0555,0.0551,0.0522,0.0493,0.0599,0.0599,0.0599,0.0599,0.0599,0,-0.0545,-0.0588,-0.0638,-0.0691,-0.0727,-0.0732,-0.0687,-0.0619,-0.0463,-0.0212,0.0037,0.0179,0.0335,0.041,0.0521,0.0583,0.0558,0.0573,0.053,0.0526,0.0523,0.0489,0.0558,0.0558,0.0558,0.0557,0,0,-0.0556,-0.0608,-0.0644,-0.0713,-0.0739,-0.0716,-0.0675,-0.0552,-0.0374,-0.0095,0.0098,0.0293,0.0366,0.0398,0.0473,0.0541,0.0519,0.0537,0.0572,0.0514,0.0509,0.0525,0.0471,0,0,0,0,0]}],[{"header":{"parameterUnit":"m.s-1","parameterCategory":2,"la1":30.2991,"la2":30.254,"lo1":-89.0895,"lo2":-89.0444,"dy":0.0017,"dx":0.0017,"nx":28,"ny":28,"refTime":"2025-08-16T09:00:00:Z","depth":"4","parameterNumber":2,"parameterNumberName":"U-component_of_CURRENTS"},"data":[0,0,0,0,0,0,0,0,0,0,0,0,0,0,0,0,0,0,0,0,0,0,0,0,0,0,0,0,0,0,0,0,0,0,0,0,0,0,0,0,0,0,0,0,0,0,0,0,0,0,0,0,0,0,0,0,0,0,-0.0916,-0.0917,0,-0.0958,-0.0958,-0.0959,-0.0983,-0.0984,-0.0984,-0.0985,-0.1047,-0.1048,-0.1049,0,0,0,0,0,0,0,0,0,0,0,0,0,-0.0768,-0.0771,-0.0916,-0.0917,-0.0918,-0.0958,-0.0958,-0.0959,-0.0983,-0.0984,-0.0985,-0.0985,-0.1047,-0.1048,-0.105,0,0,0,0,0,0,0,0,0,0,0,0,0,-0.0819,-0.0772,-0.0916,-0.0938,-0.0941,-0.0958,-0.0958,-0.0959,-0.0983,-0.0984,-0.0985,-0.0986,-0.1046,-0.1048,-0.105,-0.1045,0,0,-0.1055,-0.1056,0,0,0,0,0,0,0,0,-0.0817,-0.0824,-0.0934,-0.0937,-0.094,-0.097,-0.0929,-0.099,-0.0983,-0.0963,-0.0985,-0.0986,-0.1026,-0.1029,-0.1029,-0.1048,-0.1051,-0.1055,-0.1056,-0.1057,-0.1058,0,0,0,0,0,0,0,-0.0813,-0.0822,-0.0928,-0.0935,-0.0939,-0.0916,-0.0925,-0.094,-0.0986,-0.0964,-0.0967,-0.0979,-0.1027,-0.1027,-0.1031,-0.1052,-0.1055,-0.1057,-0.1058,-0.1059,-0.1114,-0.1114,0,0,0,0,0,0,-0.0821,-0.082,-0.0927,-0.093,-0.0884,-0.0919,-0.0928,-0.0956,-0.0986,-0.0992,-0.0978,-0.098,-0.1024,-0.1028,-0.1033,-0.1082,-0.1057,-0.1059,-0.106,-0.1113,-0.1114,-0.1114,0,0,0,0,0,0,-0.0818,-0.0831,-0.0925,-0.0878,-0.0889,-0.0922,-0.0952,-0.0957,-0.0981,-0.0997,-0.1003,-0.1001,-0.1024,-0.103,-0.1052,-0.1083,-0.106,-0.1061,-0.1113,-0.1114,-0.1114,-0.1147,0,0,0,0,0,0,-0.0814,-0.083,-0.0855,-0.0879,-0.0892,-0.0945,-0.0952,-0.0957,-0.0987,-0.099,-0.1018,-0.1023,-0.1025,-0.1049,-0.1054,-0.1085,-0.1063,-0.1112,-0.1113,-0.1114,-0.1145,-0.1149,-0.1151,0,0,0,0,0,-0.0809,-0.0836,-0.0857,-0.087,-0.0926,-0.0946,-0.0949,-0.0971,-0.0988,-0.0996,-0.101,-0.1023,-0.1058,-0.105,-0.1056,-0.1088,-0.1112,-0.1113,-0.1114,-0.1144,-0.1148,-0.1151,0,0,0,0,0,0,-0.0786,-0.0843,-0.0865,-0.0911,-0.0933,-0.0952,-0.0964,-0.0984,-0.1001,-0.1007,-0.1024,-0.1029,-0.1058,-0.1064,-0.1056,-0.1104,-0.1089,-0.1091,-0.1111,-0.1114,-0.1117,-0.1132,-0.1064,0,0,0,0,0,-0.0795,-0.0833,-0.0872,-0.0909,-0.0922,-0.0948,-0.0963,-0.0977,-0.0995,-0.1005,-0.1027,-0.1046,-0.1061,-0.1081,-0.1087,-0.1117,-0.1105,-0.1142,-0.1145,-0.1148,-0.1161,-0.1159,-0.1163,-0.1117,-0.1117,-0.1117,0,0,-0.0795,-0.0833,-0.0854,-0.0907,-0.0925,-0.0947,-0.0958,-0.0981,-0.1008,-0.1008,-0.105,-0.1055,-0.1068,-0.1093,-0.1109,-0.1109,-0.1148,-0.1149,-0.1151,-0.1164,-0.116,-0.1165,-0.1169,-0.1118,-0.1118,-0.1118,0,0,-0.0803,-0.0849,-0.0878,-0.0903,-0.0941,-0.0952,-0.0966,-0.0997,-0.1019,-0.1047,-0.1057,-0.1082,-0.1107,-0.1128,-0.114,-0.1167,-0.1156,-0.1172,-0.1213,-0.121,-0.1214,-0.1217,-0.1183,-0.1184,-0.1184,-0.1184,-0.1184,0,-0.0803,-0.0859,-0.0884,-0.0918,-0.0948,-0.096,-0.0992,-0.1008,-0.1043,-0.1071,-0.1063,-0.1112,-0.1127,-0.1173,-0.1182,-0.1178,-0.1158,-0.12,-0.1215,-0.1218,-0.1221,-0.1185,-0.1185,-0.1185,-0.1185,-0.1185,-0.1185,0,-0.0827,-0.0882,-0.0897,-0.0951,-0.0974,-0.1002,-0.1032,-0.1059,-0.1084,-0.1105,-0.1151,-0.1157,-0.1192,-0.1202,-0.1204,-0.1244,-0.1214,-0.121,-0.1207,-0.1227,-0.1188,-0.1187,-0.1188,-0.1187,-0.1187,-0.1186,0,0,-0.0808,-0.0901,-0.0909,-0.0955,-0.1003,-0.1024,-0.1067,-0.1115,-0.1152,-0.1174,-0.1221,-0.1254,-0.1259,-0.1273,-0.128,-0.1289,-0.1287,-0.1266,-0.1265,-0.1234,-0.1253,-0.1138,-0.1126,-0.1281,-0.1282,-0.1283,-0.1208,0,-0.0827,-0.0905,-0.0942,-0.1009,-0.1053,-0.1089,-0.1129,-0.117,-0.1196,-0.1233,-0.1255,-0.1283,-0.1285,-0.1299,-0.1311,-0.129,-0.129,-0.1306,-0.1237,-0.1234,-0.1132,-0.1124,-0.1285,-0.1208,-0.1207,-0.1207,-0.1207,0,-0.0836,-0.09,-0.0977,-0.1072,-0.1092,-0.1126,-0.1199,-0.1234,-0.128,-0.1301,-0.1332,-0.1332,-0.136,-0.1343,-0.133,-0.1336,-0.1306,-0.1283,-0.1279,-0.1165,-0.1119,-0.1188,-0.1205,-0.1206,-0.1206,-0.1206,-0.1206,0,-0.0818,-0.092,-0.0991,-0.1025,-0.1121,-0.1167,-0.1205,-0.1261,-0.1288,-0.1338,-0.1337,-0.1374,-0.136,-0.1354,-0.1306,-0.1319,-0.1259,-0.1267,-0.1135,-0.1125,-0.1238,-0.1236,-0.1258,-0.1258,-0.1258,-0.1258,-0.1258,0,-0.0826,-0.0882,-0.0995,-0.104,-0.1113,-0.1174,-0.1235,-0.1281,-0.132,-0.1322,-0.1364,-0.1343,-0.136,-0.1321,-0.1302,-0.1195,-0.1252,-0.1135,-0.1102,-0.1249,-0.1249,-0.1235,-0.1234,-0.1255,-0.1256,-0.1256,-0.1257,0,-0.079,-0.0867,-0.0958,-0.1079,-0.1112,-0.1161,-0.1235,-0.126,-0.1305,-0.13,-0.1306,-0.1307,-0.1239,-0.1229,-0.1188,-0.115,-0.1092,-0.1044,-0.1175,-0.1151,-0.0963,-0.0964,-0.0892,-0.0888,-0.0884,-0.0881,-0.0878,0,-0.0786,-0.0833,-0.0971,-0.101,-0.1067,-0.1142,-0.1174,-0.1246,-0.1246,-0.125,-0.1219,-0.1175,-0.1157,-0.1,-0.1017,-0.0955,-0.0948,-0.0924,-0.0979,-0.0952,-0.0927,-0.0935,-0.0941,-0.0872,-0.0871,-0.087,-0.0869,0,-0.0774,-0.0824,-0.0891,-0.0971,-0.1025,-0.1068,-0.111,-0.1101,-0.114,-0.1193,-0.1095,-0.1046,-0.0949,-0.0907,-0.085,-0.0821,-0.0952,-0.0883,-0.0892,-0.0944,-0.0926,-0.0907,-0.0918,-0.0855,-0.0857,-0.0858,-0.0859,0,-0.0751,-0.0782,-0.0859,-0.0913,-0.0967,-0.0956,-0.1001,-0.098,-0.0989,-0.0997,-0.0956,-0.0913,-0.0922,-0.0831,-0.0788,-0.0736,-0.0734,-0.0741,-0.0758,-0.0773,-0.0768,-0.073,-0.0562,0,0,0,0,0,-0.0727,-0.0738,-0.0788,-0.0828,-0.0865,-0.0879,-0.0929,-0.0962,-0.1,-0.0902,-0.0926,-0.0836,-0.0744,-0.0734,-0.065,-0.0723,-0.0737,-0.0625,-0.0756,-0.078,-0.0796,-0.0802,0,0,0,0,0,0,-0.0704,-0.0745,-0.0761,-0.0727,-0.0719,-0.0731,-0.0752,-0.0782,-0.0735,-0.0783,-0.0734,-0.078,-0.07,-0.0755,-0.0624,-0.0621,-0.0686,-0.0619,-0.0617,-0.0771,-0.0786,-0.0798,-0.0809,0,0,0,0,0]},{"header":{"parameterUnit":"m.s-1","parameterCategory":2,"la1":30.2991,"la2":30.254,"lo1":-89.0895,"lo2":-89.0444,"dy":0.0017,"dx":0.0017,"nx":28,"ny":28,"refTime":"2025-08-16T09:00:00:Z","depth":"4","parameterNumber":3,"parameterNumberName":"V-component_of_CURRENTS"},"data":[0,0,0,0,0,0,0,0,0,0,0,0,0,0,0,0,0,0,0,0,0,0,0,0,0,0,0,0,0,0,0,0,0,0,0,0,0,0,0,0,0,0,0,0,0,0,0,0,0,0,0,0,0,0,0,0,0,0,-0.0369,-0.0369,0,-0.0346,-0.0346,-0.0346,-0.0339,-0.0339,-0.0339,-0.0339,-0.0332,-0.0332,-0.0332,0,0,0,0,0,0,0,0,0,0,0,0,0,-0.0408,-0.0408,-0.0369,-0.0369,-0.0368,-0.0346,-0.0346,-0.0346,-0.0339,-0.0339,-0.0339,-0.0339,-0.0332,-0.0332,-0.0332,0,0,0,0,0,0,0,0,0,0,0,0,0,-0.039,-0.0408,-0.0369,-0.0361,-0.036,-0.0346,-0.0346,-0.0346,-0.0339,-0.0339,-0.0339,-0.0339,-0.0332,-0.0332,-0.0332,-0.0329,0,0,-0.0331,-0.0331,0,0,0,0,0,0,0,0,-0.0391,-0.0389,-0.0363,-0.0362,-0.0361,-0.0344,-0.0357,-0.0341,-0.0339,-0.0348,-0.0339,-0.0339,-0.0337,-0.0337,-0.0333,-0.0329,-0.0329,-0.0331,-0.0331,-0.0331,-0.0331,0,0,0,0,0,0,0,-0.0392,-0.039,-0.0361,-0.0363,-0.0361,-0.036,-0.0357,-0.0354,-0.0344,-0.0347,-0.0346,-0.0342,-0.0337,-0.0334,-0.0333,-0.0329,-0.0331,-0.0331,-0.0331,-0.033,-0.0322,-0.0321,0,0,0,0,0,0,-0.0393,-0.0391,-0.0362,-0.036,-0.0375,-0.0359,-0.0356,-0.035,-0.0343,-0.0342,-0.0342,-0.0342,-0.0334,-0.0333,-0.0333,-0.0316,-0.0331,-0.033,-0.033,-0.0322,-0.0322,-0.0321,0,0,0,0,0,0,-0.0394,-0.0391,-0.0363,-0.0374,-0.0371,-0.0358,-0.0352,-0.035,-0.0349,-0.0339,-0.0338,-0.0344,-0.0334,-0.0333,-0.034,-0.0317,-0.033,-0.033,-0.0322,-0.0322,-0.0322,-0.0292,0,0,0,0,0,0,-0.0395,-0.0391,-0.0394,-0.0374,-0.037,-0.0353,-0.0352,-0.0349,-0.0346,-0.0346,-0.034,-0.0339,-0.0334,-0.0341,-0.034,-0.0317,-0.033,-0.0322,-0.0322,-0.0322,-0.0293,-0.0291,-0.0289,0,0,0,0,0,-0.0397,-0.0393,-0.0395,-0.0391,-0.0372,-0.0353,-0.035,-0.0342,-0.0346,-0.0343,-0.0349,-0.034,-0.0339,-0.0341,-0.034,-0.0316,-0.0322,-0.0322,-0.0322,-0.0294,-0.0291,-0.0289,0,0,0,0,0,0,-0.0407,-0.0391,-0.0393,-0.0384,-0.0371,-0.0351,-0.0348,-0.0345,-0.0346,-0.0352,-0.0346,-0.0346,-0.0341,-0.034,-0.0343,-0.0315,-0.0325,-0.0325,-0.0305,-0.0302,-0.03,-0.0276,-0.033,0,0,0,0,0,-0.0412,-0.041,-0.0391,-0.0386,-0.0379,-0.0367,-0.0362,-0.0357,-0.0351,-0.0351,-0.0347,-0.0345,-0.0338,-0.0332,-0.0331,-0.0319,-0.0293,-0.0302,-0.03,-0.0298,-0.0279,-0.0217,-0.0207,-0.0321,-0.0321,-0.0321,0,0,-0.0415,-0.0407,-0.0406,-0.039,-0.0381,-0.0369,-0.0364,-0.0354,-0.0344,-0.0351,-0.0342,-0.0343,-0.0337,-0.0323,-0.0319,-0.0319,-0.0258,-0.0298,-0.0297,-0.0278,-0.0216,-0.0204,-0.0194,-0.0321,-0.0321,-0.0321,0,0,-0.0411,-0.0412,-0.0405,-0.0397,-0.0385,-0.0376,-0.0374,-0.0357,-0.0347,-0.0345,-0.0341,-0.0321,-0.0329,-0.0296,-0.0288,-0.0273,-0.0255,-0.0286,-0.0245,-0.0185,-0.0174,-0.0165,-0.0135,-0.0123,-0.0277,-0.0277,-0.0277,0,-0.0417,-0.0406,-0.04,-0.0391,-0.0384,-0.0379,-0.0367,-0.0356,-0.0344,-0.0323,-0.0343,-0.0309,-0.0304,-0.0254,-0.0251,-0.0262,-0.0245,-0.0253,-0.0179,-0.0169,-0.0159,-0.0131,-0.0118,-0.0275,-0.0276,-0.0276,-0.0276,0,-0.0405,-0.04,-0.0394,-0.0385,-0.0376,-0.0367,-0.0349,-0.0337,-0.0334,-0.0314,-0.0276,-0.0265,-0.0236,-0.0231,-0.0239,-0.0165,-0.0184,-0.0188,-0.0179,-0.0145,-0.0119,-0.0106,-0.0273,-0.0274,-0.0274,-0.0275,0,0,-0.041,-0.0389,-0.0392,-0.0384,-0.0373,-0.0364,-0.0341,-0.0305,-0.0281,-0.0263,-0.0218,-0.0188,-0.0173,-0.0161,-0.0152,-0.0097,-0.0021,-0.0116,-0.0113,-0.0075,0.0087,0.0057,0.0068,-0.0017,-0.0014,-0.0012,0.0071,0,-0.0403,-0.0389,-0.0377,-0.0366,-0.0355,-0.034,-0.0316,-0.0287,-0.0265,-0.0225,-0.0176,-0.0148,-0.0149,-0.0139,-0.0077,-0.0045,0.0017,-0.0045,0.0039,0.0041,0.0022,0.0085,-0.0003,0.0081,0.0084,0.0086,0.0088,0,-0.0393,-0.039,-0.0375,-0.0349,-0.0342,-0.0338,-0.0298,-0.0275,-0.0212,-0.019,-0.0134,-0.0114,-0.0033,-0.0048,0.0072,0.0024,0.0066,0.0098,0.0102,0.008,0.0038,0.0044,0.0113,0.0111,0.0109,0.0107,0.0106,0,-0.04,-0.0383,-0.0373,-0.037,-0.0344,-0.033,-0.0316,-0.0265,-0.0235,-0.017,-0.0144,-0.0055,-0.0017,0.0061,0.0117,0.0097,0.0238,0.022,0.0243,0.0239,0.0227,0.0215,0.0332,0.0332,0.0332,0.0332,0.0332,0,-0.039,-0.0385,-0.0382,-0.0382,-0.0376,-0.0346,-0.0324,-0.0291,-0.0232,-0.0193,-0.0132,-0.0084,0.0013,0.009,0.0142,0.023,0.0265,0.0275,0.0277,0.023,0.0219,0.0235,0.0223,0.0335,0.0334,0.0334,0.0333,0,-0.0389,-0.0383,-0.0384,-0.0377,-0.038,-0.0381,-0.0356,-0.0334,-0.027,-0.0219,-0.0199,-0.009,0.001,0.0101,0.0227,0.0259,0.0343,0.0367,0.0303,0.0295,0.0297,0.0284,0.0414,0.0414,0.0414,0.0414,0.0414,0,-0.0379,-0.0379,-0.0406,-0.0427,-0.043,-0.0431,-0.0431,-0.0373,-0.0343,-0.0227,-0.02,-0.0083,-0.0015,0.0145,0.0239,0.0358,0.0366,0.0402,0.0373,0.0325,0.0314,0.0302,0.029,0.0414,0.0414,0.0414,0.0414,0,-0.0372,-0.0392,-0.0406,-0.0459,-0.0481,-0.049,-0.0478,-0.0452,-0.037,-0.0313,-0.02,-0.01,0.0021,0.0141,0.0236,0.0317,0.0374,0.0402,0.0402,0.0376,0.0327,0.0313,0.0301,0.0414,0.0414,0.0414,0.0414,0,-0.0379,-0.0402,-0.044,-0.0482,-0.0521,-0.0536,-0.0523,-0.0474,-0.0425,-0.0286,-0.0255,-0.011,-0.0014,0.0121,0.0207,0.0287,0.0304,0.0308,0.0314,0.0315,0.0254,0.0175,0.0244,0,0,0,0,0,-0.0382,-0.0414,-0.0459,-0.0506,-0.0548,-0.0564,-0.0546,-0.0517,-0.0436,-0.0369,-0.0302,-0.0192,-0.0025,0.0061,0.0137,0.0196,0.0306,0.0285,0.0309,0.0415,0.0415,0.0357,0,0,0,0,0,0,-0.0387,-0.0429,-0.0459,-0.0521,-0.0554,-0.0586,-0.0576,-0.0524,-0.0468,-0.0378,-0.0288,-0.02,-0.0039,-0.0077,0.0129,0.0161,0.0179,0.038,0.038,0.0415,0.0415,0.0415,0.0356,0,0,0,0,0]}]]